Regional Weather Roundup
Issued by NWS State College, PA

Home | Current Version | Previous Version | Text Only | Print | Product List | Glossary On
Versions: 1 2 3 4 5 6 7 8 9 10 11 12 13 14 15 16 17 18 19 20 21 22 23 24 25 26 27 28 29 30 31 32 33 34 35 36 37 38 39 40 41 42 43 44 45 46 47 48 49 50
000
ASUS41 KCTP 290310
RWRCTP

REGIONAL WEATHER ROUNDUP
NATIONAL WEATHER SERVICE STATE COLLEGE PA
1100 PM EDT TUE JUL 28 2015

Note: "fair" indicates few or no clouds below 12,000 feet with no
significant weather and/or obstructions to visibility.

* = STATION THAT DOES NOT REPORT PRECIPITATION /E.G. RAIN...SNOW...ETC/
    THUNDER OR FOG.

PAZ002>004-007>009-013>016-020>023-029>032-290400-
WESTERN PENNSYLVANIA

CITY           SKY/WX    TMP DP  RH WIND       PRES   REMARKS
ERIE           MOCLDY    76  60  57 CALM      30.00S
MEADVILLE      MOCLDY    75  59  57 E5        30.04S
FRANKLIN*      MOCLDY    72  61  68 N5        30.06S
NEW CASTLE     FAIR      69  66  90 CALM      30.02R
BEAVER COUNTY  NOT AVBL
BUTLER*        PTCLDY    72  63  73 E7        30.04R
PITTSBURGH INT MOCLDY    79  62  56 E7        30.01R
PITTSBURGH     PTCLDY    78  62  57 E6        30.01R
INDIANA*       PTCLDY    73  63  68 CALM      30.07S
LATROBE        NOT AVBL
WASHINGTON CO* NOT AVBL
$$

PAZ004>006-010>012-017>019-024>028-033>037-041-042-045-046-049>053-290400-
CENTRAL PENNSYLVANIA

CITY           SKY/WX    TMP DP  RH WIND       PRES   REMARKS
BRADFORD       CLEAR     65  61  87 CALM      30.09R
DUBOIS         CLEAR     73  62  68 SE3       30.06R
CLEARFIELD     CLEAR     67  62  84 CALM      30.06R
JOHNSTOWN      CLEAR     72  62  71 CALM      30.09R
ALTOONA        CLEAR     67  63  87 CALM      30.06R
STATE COLLEGE  CLEAR     72  65  79 CALM      30.04F
WILLIAMSPORT   CLEAR     72  66  81 NW3       30.00R
SELINSGROVE    CLEAR     68  66  93 CALM      30.01R
FT INDIANTOWN  CLEAR     71  69  91 CALM      30.00R
CAPITAL CITY   CLEAR     74  65  73 SW5       30.00R
HARRISBURG     PTCLDY    77  70  79 CALM      29.99R
YORK           CLEAR     70  68  93 CALM      30.01R FOG
$$

PAZ038>040-043-044-047-048-054-055-060>062-067>071-290400-
EASTERN PENNSYLVANIA

CITY           SKY/WX    TMP DP  RH WIND       PRES   REMARKS
SCRANTON       CLEAR     75  65  70 E8        30.03R
MOUNT POCONO   CLEAR     65  62  90 CALM      30.08S
ALLENTOWN      CLEAR     76  68  76 CALM      29.99S
QUAKERTOWN*    CLEAR     72  68  88 CALM      30.01S
READING        CLEAR     76  67  73 CALM      29.98F
LANCASTER      CLEAR     75  69  81 CALM      30.00S
COATESVILLE    CLEAR     75  72  88 S3        30.03R
POTTSTOWN      CLEAR     75  70  84 VRB5      30.01S
BLUE BELL      CLEAR     79  73  83 SW5       29.99S
DOYLESTOWN     CLEAR     72  64  76 CALM      29.99F
WILLOW GROVE   NOT AVBL
NORTH PHILA    CLEAR     81  69  67 SW3       30.00S
PHILADELPHIA   PTCLDY    81  72  74 SW3       29.99F
$$


USA.gov is the U.S. government's official web portal to all federal, state and local government web resources and services.